• în România
  • Lista ţărilor
  • Pe 7 zile
  • Temperatura apei
  • Hartă satelitară
  • Meteo pe hartă
  • Widget-uri
  • user-avatar
    Intrare

    Meteo pe oră la Shetnevo

    Astăzi, 25 Aprilie, Miercuri

    Timp Temperatura Precipitaţii Vânt Presiune Umiditate
    00:00 +6°C° 0 mm 2 m/s 738 mmHg 94%
    01:00 +5°C° 0 mm 2 m/s 738 mmHg 95%
    02:00 +5°C° 0 mm 2 m/s 738 mmHg 95%
    03:00 +5°C° 0 mm 2 m/s 737 mmHg 94%
    04:00 +5°C° 0 mm 2 m/s 737 mmHg 93%
    05:00 +5°C° 0 mm 2 m/s 737 mmHg 92%
    06:00 +5°C° 0,2 mm 3 m/s 737 mmHg 90%
    07:00 +7°C° 0,2 mm 3 m/s 736 mmHg 87%
    08:00 +8°C° 0,2 mm 3 m/s 736 mmHg 84%
    09:00 +8°C° 0,3 mm 4 m/s 736 mmHg 79%
    10:00 +10°C° 0,3 mm 4 m/s 736 mmHg 73%
    11:00 +11°C° 0,3 mm 4 m/s 736 mmHg 68%
    12:00 +10°C° 0,2 mm 5 m/s 736 mmHg 63%
    13:00 +12°C° 0,2 mm 5 m/s 736 mmHg 59%
    14:00 +13°C° 0,2 mm 5 m/s 736 mmHg 55%
    15:00 +12°C° 0 mm 5 m/s 736 mmHg 55%
    16:00 +12°C° 0 mm 4 m/s 735 mmHg 56%
    17:00 +12°C° 0 mm 4 m/s 735 mmHg 56%
    18:00 +10°C° 0 mm 3 m/s 735 mmHg 62%
    19:00 +9°C° 0 mm 2 m/s 735 mmHg 68%
    20:00 +9°C° 0 mm 1 m/s 734 mmHg 74%
    21:00 +8°C° 0,2 mm 1 m/s 734 mmHg 79%
    22:00 +7°C° 0,2 mm 2 m/s 733 mmHg 83%
    23:00 +7°C° 0,2 mm 2 m/s 733 mmHg 87%

    Mâine, 26 Aprilie, Joi

    Timp Temperatura Precipitaţii Vânt Presiune Umiditate
    00:00 +7°C° 0,3 mm 2 m/s 732 mmHg 89%
    01:00 +7°C° 0,3 mm 2 m/s 732 mmHg 92%
    02:00 +7°C° 0,3 mm 2 m/s 731 mmHg 94%
    03:00 +7°C° 0,2 mm 2 m/s 731 mmHg 94%
    04:00 +8°C° 0,2 mm 3 m/s 730 mmHg 93%
    05:00 +8°C° 0,2 mm 3 m/s 730 mmHg 93%
    06:00 +7°C° 0,1 mm 4 m/s 730 mmHg 91%
    07:00 +7°C° 0,1 mm 4 m/s 731 mmHg 88%
    08:00 +7°C° 0,1 mm 5 m/s 731 mmHg 86%
    09:00 +7°C° 0,3 mm 5 m/s 732 mmHg 85%
    10:00 +7°C° 0,3 mm 5 m/s 733 mmHg 84%
    11:00 +7°C° 0,3 mm 6 m/s 733 mmHg 82%
    12:00 +8°C° 0,2 mm 6 m/s 734 mmHg 74%
    13:00 +9°C° 0,2 mm 6 m/s 735 mmHg 66%
    14:00 +10°C° 0,2 mm 5 m/s 735 mmHg 59%
    15:00 +10°C° 0,2 mm 5 m/s 736 mmHg 59%
    16:00 +10°C° 0,2 mm 5 m/s 736 mmHg 60%
    17:00 +11°C° 0,2 mm 4 m/s 737 mmHg 61%
    18:00 +8°C° 0 mm 4 m/s 737 mmHg 67%
    19:00 +8°C° 0 mm 3 m/s 738 mmHg 73%
    20:00 +7°C° 0 mm 2 m/s 738 mmHg 80%
    21:00 +5°C° 0,1 mm 3 m/s 739 mmHg 82%
    22:00 +5°C° 0,1 mm 3 m/s 739 mmHg 84%
    23:00 +5°C° 0,1 mm 3 m/s 739 mmHg 87%

    Poimâine, 27 Aprilie, Vineri

    Timp Temperatura Precipitaţii Vânt Presiune Umiditate
    00:00 +4°C° 0 mm 3 m/s 739 mmHg 89%
    01:00 +5°C° 0 mm 2 m/s 740 mmHg 91%
    02:00 +4°C° 0 mm 2 m/s 740 mmHg 94%
    03:00 +4°C° 0 mm 2 m/s 740 mmHg 95%
    04:00 +3°C° 0 mm 2 m/s 740 mmHg 95%
    05:00 +3°C° 0 mm 2 m/s 741 mmHg 96%
    06:00 +5°C° 0 mm 2 m/s 741 mmHg 90%
    07:00 +6°C° 0 mm 2 m/s 741 mmHg 84%
    08:00 +8°C° 0 mm 3 m/s 742 mmHg 78%
    09:00 +9°C° 0 mm 3 m/s 742 mmHg 71%
    10:00 +10°C° 0 mm 3 m/s 742 mmHg 63%
    11:00 +11°C° 0 mm 3 m/s 742 mmHg 56%
    12:00 +12°C° 0 mm 3 m/s 742 mmHg 51%
    13:00 +13°C° 0 mm 3 m/s 742 mmHg 46%
    14:00 +14°C° 0 mm 3 m/s 742 mmHg 41%
    15:00 +14°C° 0 mm 3 m/s 742 mmHg 42%
    16:00 +14°C° 0 mm 3 m/s 742 mmHg 43%
    17:00 +13°C° 0 mm 3 m/s 742 mmHg 44%
    18:00 +13°C° 0,3 mm 2 m/s 742 mmHg 53%
    19:00 +10°C° 0,3 mm 2 m/s 742 mmHg 63%
    20:00 +9°C° 0,3 mm 1 m/s 743 mmHg 73%
    21:00 +7°C° 0,2 mm 2 m/s 743 mmHg 77%
    22:00 +7°C° 0,2 mm 2 m/s 743 mmHg 82%
    23:00 +6°C° 0,2 mm 2 m/s 744 mmHg 87%

    28 Aprilie, Sâmbătă

    Timp Temperatura Precipitaţii Vânt Presiune Umiditate
    00:00 +5°C° 0 mm 2 m/s 744 mmHg 89%
    01:00 +5°C° 0 mm 2 m/s 744 mmHg 92%
    02:00 +4°C° 0 mm 2 m/s 744 mmHg 95%
    03:00 +4°C° 0 mm 2 m/s 745 mmHg 95%
    04:00 +4°C° 0 mm 2 m/s 745 mmHg 96%
    05:00 +4°C° 0 mm 2 m/s 745 mmHg 96%
    06:00 +5°C° 0 mm 2 m/s 746 mmHg 89%
    07:00 +6°C° 0 mm 2 m/s 746 mmHg 82%
    08:00 +8°C° 0 mm 2 m/s 747 mmHg 75%
    09:00 +9°C° 0 mm 3 m/s 747 mmHg 68%
    10:00 +10°C° 0 mm 3 m/s 747 mmHg 62%
    11:00 +11°C° 0 mm 3 m/s 747 mmHg 55%
    12:00 +12°C° 0 mm 3 m/s 747 mmHg 51%
    13:00 +13°C° 0 mm 3 m/s 747 mmHg 47%
    14:00 +14°C° 0 mm 3 m/s 747 mmHg 44%
    15:00 +14°C° 0 mm 3 m/s 747 mmHg 44%
    16:00 +13°C° 0 mm 3 m/s 747 mmHg 45%
    17:00 +14°C° 0 mm 2 m/s 747 mmHg 46%
    18:00 +13°C° 0 mm 2 m/s 747 mmHg 51%
    19:00 +10°C° 0 mm 2 m/s 747 mmHg 57%
    20:00 +10°C° 0 mm 1 m/s 748 mmHg 63%
    21:00 +9°C° 0 mm 1 m/s 748 mmHg 66%
    22:00 +9°C° 0 mm 1 m/s 748 mmHg 69%
    23:00 +7°C° 0 mm 2 m/s 748 mmHg 72%

    29 Aprilie, Duminică

    Timp Temperatura Precipitaţii Vânt Presiune Umiditate
    00:00 +7°C° 0,1 mm 2 m/s 748 mmHg 73%
    01:00 +7°C° 0,1 mm 2 m/s 747 mmHg 74%
    02:00 +7°C° 0,1 mm 3 m/s 747 mmHg 75%
    03:00 +8°C° 0,5 mm 3 m/s 747 mmHg 78%
    04:00 +8°C° 0,5 mm 3 m/s 746 mmHg 80%
    05:00 +8°C° 0,5 mm 3 m/s 746 mmHg 83%
    06:00 +9°C° 0,2 mm 3 m/s 746 mmHg 80%
    07:00 +10°C° 0,2 mm 4 m/s 745 mmHg 77%
    08:00 +12°C° 0,2 mm 4 m/s 745 mmHg 73%
    09:00 +14°C° 0 mm 4 m/s 745 mmHg 69%
    10:00 +17°C° 0 mm 4 m/s 745 mmHg 64%
    11:00 +19°C° 0 mm 4 m/s 745 mmHg 59%
    12:00 +19°C° 0 mm 5 m/s 744 mmHg 54%
    13:00 +20°C° 0 mm 5 m/s 744 mmHg 50%
    14:00 +21°C° 0 mm 5 m/s 744 mmHg 45%
    15:00 +21°C° 0 mm 4 m/s 744 mmHg 46%
    16:00 +20°C° 0 mm 4 m/s 744 mmHg 46%
    17:00 +20°C° 0 mm 3 m/s 744 mmHg 47%
    18:00 +18°C° 0 mm 2 m/s 744 mmHg 55%
    19:00 +15°C° 0 mm 2 m/s 744 mmHg 63%
    20:00 +13°C° 0 mm 1 m/s 744 mmHg 71%
    21:00 +12°C° 0 mm 1 m/s 744 mmHg 74%
    22:00 +11°C° 0 mm 1 m/s 745 mmHg 76%
    23:00 +10°C° 0 mm 0 m/s 745 mmHg 79%

    30 Aprilie, Luni

    Timp Temperatura Precipitaţii Vânt Presiune Umiditate
    00:00 +10°C° 0 mm 1 m/s 745 mmHg 80%
    01:00 +10°C° 0 mm 1 m/s 745 mmHg 81%
    02:00 +10°C° 0 mm 1 m/s 745 mmHg 82%
    03:00 +10°C° 0 mm 1 m/s 745 mmHg 82%
    04:00 +10°C° 0 mm 1 m/s 744 mmHg 83%
    05:00 +9°C° 0 mm 0 m/s 744 mmHg 83%
    06:00 +12°C° 0 mm 1 m/s 744 mmHg 77%
    07:00 +14°C° 0 mm 1 m/s 744 mmHg 70%
    08:00 +18°C° 0 mm 1 m/s 744 mmHg 64%
    09:00 +18°C° 0,1 mm 2 m/s 744 mmHg 62%
    10:00 +20°C° 0,1 mm 2 m/s 743 mmHg 60%
    11:00 +22°C° 0,1 mm 3 m/s 743 mmHg 58%
    12:00 +22°C° 0,4 mm 3 m/s 742 mmHg 54%
    13:00 +23°C° 0,4 mm 4 m/s 742 mmHg 51%
    14:00 +25°C° 0,4 mm 4 m/s 741 mmHg 48%
    15:00 +23°C° 0 mm 4 m/s 741 mmHg 48%
    16:00 +23°C° 0 mm 4 m/s 740 mmHg 48%
    17:00 +23°C° 0 mm 4 m/s 740 mmHg 47%
    18:00 +21°C° 0 mm 3 m/s 740 mmHg 54%
    19:00 +19°C° 0 mm 3 m/s 739 mmHg 60%
    20:00 +17°C° 0 mm 3 m/s 739 mmHg 66%
    21:00 +16°C° 0 mm 3 m/s 739 mmHg 67%
    22:00 +16°C° 0 mm 3 m/s 739 mmHg 69%
    23:00 +14°C° 0 mm 3 m/s 739 mmHg 70%
    Arată mai mult